TITAN 3C TRANSTAGE DEB, 2799

Orbit data source: Space-Track

TITAN 3C TRANSTAGE DEB, 2799 is space debris in LEO originally from a launch on Fri, 15 Oct 1965 UTC launched from the Air Force Eastern Test Range (AFETR). Debris objects in space refer to the collection of defunct objects orbiting the Earth. Examples of debris include non-operational satellites, rocket bodies, and fragments generated from explosions, collisions, or faulty payload assembly.

Loading next visibility...
TITAN 3C TRANSTAGE DEB details
Identifier
2799, 1965-082KX
Orbit
LEO
Last TLE update11 hours ago
Origin
Flag of USUSAF SSD (US)
ManufacturerUnknown
MissionSpacecraft
Bus & MotorUnknown
MassUnknown
Launch date (UTC)
1965-10-15 (59 years ago)
Launch vehicleUnknown
Launch site
Air Force Eastern Test Range (AFETR)
Object type
Payload
Rocket body
Debris
Shape & HBRUnknown
Radar Cross SectionSmall (<0.1 m²)

Expand to show TLE details & history

TLE from 11 hours ago
0 TITAN 3C TRANSTAGE DEB
1 02799U 65082KX  25024.53274288  .00004270  00000-0  65269-3 0  9994
2 02799  32.0541 167.6615 0034423 277.9834 148.2242 14.72159241 81088
Epoch: 2025-01-24T12:47Z
Definitive object data (Epoch: 2025-01-24T12:47:08.984Z)
Latitude29.2301°
Longitude-85.49717°
Altitude674.114 km
Speed7.514 km/s
True Right ascension15h 21m 32s
True Declination29° 04' 55"
Sunlit
Object was in daylight at TLE epoch
Visualization TLE readout
Latitude19.76289°
Longitude-116.24581°
Altitude663.323 km
Speed7.524 km/s
Apparent Right ascension13h 19m 36s
Apparent Declination-8° 24' 23"
Sunlit
Object is in daylight
Visualization observer readout
Local Sidereal Time01:21:03
Azimuth0.685° NNE
Elevation-58.489°
Doppler factor1
Orbital elements
Apogee altitude682.026 km
Perigee altitude633.586 km
Semi-major axis7,035.943 km
Eccentricity0.0034423
Inclination32.0541°
RAAN167.6615°
Arg. of periapsis277.9834°
True anomaly148.43116°
Mean anomaly148.2242°
Eccentric anomaly148.32776°
Mean motion3.67756 °/min
BSTAR0.00065269
Orbital period97.89 mins
Loading maneuver chart data...

TITAN 3C TRANSTAGE DEB Visibility forecast

Observer location: undefined°, undefined

Span
Click to sort rows by Start time (UTC) header in descending order
Start Az.
Max El. time (UTC)
Max El. Az.
Max El.
End time (UTC)
End Az.
6 mins2025-01-25 13:08:18.229Z202.892° SW2025-01-25 13:11:18.229Z160.949° S18.77°2025-01-25 13:14:18.229Z119.509° SE
7 mins2025-01-25 14:51:18.229Z228.507° WSW2025-01-25 14:54:18.229Z176.461° S27.696°2025-01-25 14:58:18.229Z115.869° SE
6 mins2025-01-25 16:35:18.229Z230.42° WSW2025-01-25 16:37:18.229Z194.482° SSW25.02°2025-01-25 16:41:18.229Z134.776° SE
|